Weather History for Tucson Davis Monthan, AZ

Change the Weather History Date:

Saturday, April 12, 2014

  Actual Average Record
Temperature  
Mean Temperature 72 °F -  
Max Temperature 82 °F 79 °F 96 °F (1988)
Min Temperature 63 °F 50 °F 34 °F (1967)
Cooling Degree Days 8    
Growing Degree Days 22 (Base 50)    
Moisture  
Dew Point 17 °F    
Average Humidity 11    
Maximum Humidity 20    
Minimum Humidity 7    
Precipitation  
Precipitation 0.00 in - - ()
Sea Level Pressure  
Sea Level Pressure 29.74 in    
Wind  
Wind Speed 9 mph (SSW)    
Max Wind Speed 24 mph    
Max Gust Speed 29 mph    
Visibility 10 miles    
Events      
Averages and records for this station are not official NWS values.
T = Trace of Precipitation, MM = Missing Value Source: NWS Daily Summary

Daily Weather History Graph

Daily Weather History Graph

Search for Another Location

Airport:

Trip Planner

Search our weather history database for the weather conditions in past years. The results will help you decide how hot, cold, wet, or windy it might be!

Date:

Astronomy

Apr. 12, 2014 Rise Set
Actual Time 5:58 AM MST 6:50 PM MST
Civil Twilight 5:33 AM MST 7:16 PM MST
Nautical Twilight 5:03 AM MST 7:45 PM MST
Astronomical Twilight 4:33 AM MST 8:16 PM MST
Moon 4:40 PM MST (4/12) 4:17 AM MST (4/12)
Length of Visible Light 13h 42m
Length of Day
12h 52m
Waxing Gibbous, 93% of the Moon is Illuminated
Apr 12
Waxing Gibbous
Apr 15
Full
Apr 22
Last Quarter
Apr 28
New
May 6
First Quarter

Hourly Weather History & Observations

Time (MST) Temp. Dew Point Humidity Pressure Visibility Wind Dir Wind Speed Gust Speed Precip Events Conditions
12:58 AM 72.7 °F 15.6 °F 11% 29.77 in 10.0 mi NNW 1.2 mph - N/A   Overcast
1:23 AM 75.2 °F 15.8 °F 11% 29.89 in 10.0 mi ENE 6.9 mph - N/A   Light Drizzle
1:32 AM 75.2 °F 19.4 °F 12% 29.88 in 10.0 mi SE 9.2 mph - N/A   Scattered Clouds
1:58 AM 73.9 °F 18.7 °F 12% 29.77 in 10.0 mi SW 8.1 mph - 0.00 in   Mostly Cloudy
2:58 AM 72.3 °F 19.2 °F 13% 29.75 in 10.0 mi South 10.4 mph - N/A   Mostly Cloudy
3:58 AM 71.6 °F 20.5 °F 15% 29.72 in 10.0 mi South 3.5 mph - N/A   Clear
4:58 AM 67.8 °F 20.8 °F 17% 29.74 in 10.0 mi South 5.8 mph - N/A   Clear
5:58 AM 65.1 °F 22.3 °F 20% 29.75 in 10.0 mi East 3.5 mph - N/A   Mostly Cloudy
6:58 AM 66.7 °F 22.3 °F 18% 29.77 in 10.0 mi SE 8.1 mph - N/A   Clear
7:58 AM 73.8 °F 21.4 °F 14% 29.75 in 10.0 mi SSE 3.5 mph - N/A   Clear
8:58 AM 76.1 °F 22.3 °F 13% 29.75 in 10.0 mi SSW 11.5 mph - N/A   Clear
9:58 AM 77.2 °F 21.6 °F 13% 29.76 in 10.0 mi South 13.8 mph - N/A   Partly Cloudy
10:58 AM 79.2 °F 22.8 °F 12% 29.74 in 10.0 mi South 17.3 mph 21.9 mph N/A   Partly Cloudy
11:28 AM 80.6 °F 21.2 °F 11% 29.83 in 10.0 mi SW 12.7 mph 18.4 mph N/A   Partly Cloudy
11:58 AM 81.3 °F 16.2 °F 9% 29.70 in 10.0 mi SW 13.8 mph 20.7 mph N/A   Partly Cloudy
12:32 PM 82.4 °F 15.8 °F 8% 29.81 in 10.0 mi WSW 13.8 mph - N/A   Partly Cloudy
12:35 PM 82.4 °F 15.8 °F 8% 29.81 in 10.0 mi SSW 15.0 mph - N/A   Partly Cloudy
12:58 PM 81.9 °F 18.1 °F 9% 29.68 in 10.0 mi SSW 16.1 mph 23.0 mph N/A   Partly Cloudy
1:58 PM 81.3 °F 17.8 °F 9% 29.66 in 10.0 mi WSW 24.2 mph 28.8 mph N/A   Partly Cloudy
2:58 PM 81.9 °F 12.4 °F 7% 29.64 in 10.0 mi WSW 16.1 mph 23.0 mph N/A   Partly Cloudy
3:58 PM 81.7 °F 15.3 °F 8% 29.63 in 10.0 mi WSW 17.3 mph 28.8 mph N/A   Clear
4:58 PM 80.2 °F 11.1 °F 7% 29.64 in 10.0 mi SW 15.0 mph 23.0 mph N/A   Clear
5:58 PM 77.9 °F 9.3 °F 7% 29.66 in 10.0 mi SW 16.1 mph - N/A   Clear
6:58 PM 75.6 °F 7.5 °F 7% 29.68 in 10.0 mi SW 17.3 mph - N/A   Clear
7:58 PM 72.5 °F 8.2 °F 8% 29.69 in 10.0 mi WSW 11.5 mph - N/A   Clear
8:58 PM 68.5 °F 10.6 °F 11% 29.72 in 10.0 mi SW 10.4 mph - N/A   Clear
9:58 PM 66.2 °F 14.4 °F 13% 29.74 in 10.0 mi SSW 9.2 mph - N/A   Clear
10:58 PM 63.0 °F 13.5 °F 15% 29.74 in 10.0 mi SSW 6.9 mph - N/A   Clear
11:58 PM 63.5 °F 13.8 °F 14% 29.75 in 10.0 mi South 5.8 mph - N/A   Clear